Location: Stanford
(52.2833°N, 2.4333°W)
Time: 02:15:09
(UTC+00:00)

USA 229 - Pass Details

Date: 22 January 2021
Orbit: 964 x 1248 km, 63.4° (Epoch: 26 February)

Event Time Altitude Azimuth Distance (km) Brightness Sun altitude
Rises 18:08:07 0° 310° (NW) 3,887 7.2 -13.3°
Reaches altitude 10° 18:10:45 10° 314° (NW) 2,969 6.5 -13.7°
Maximum altitude 18:17:47 60° 34° (NE) 1,318 3.9 -14.8°
Enters shadow 18:24:13 15° 112° (ESE) 2,797 5.4 -15.7°
